EW6030 Weather Reports


Display with metric or nautical units.
time (UTC)temp
F
wind
direction
speed
MPH
gust
MPH
rain 1hr
in
rain 24hr
in
rain mn
in
humidity
%
barometer
mb
20260510063020 44 185 0.0 0.0 0.00 0.00 0.00 60 1010.6
20260510061523 45 185 0.0 0.0 0.00 0.00 0.00 57 1010.6
20260510060010 46 185 0.0 0.0 0.00 0.00 0.00 55 1010.6
20260510054507 47 185 0.0 0.0 0.00 0.00 0.00 54 1010.5
20260510053003 48 185 0.0 0.0 0.00 0.00 0.00 52 1010.1
20260510051603 48 185 0.0 0.0 0.00 0.00 0.00 50 1009.9
20260510050058 48 193 0.0 0.0 0.00 0.00 0.00 49 1009.6
20260510044555 48 91 0.0 0.0 0.00 0.00 0.00 49 1009.2
20260510043055 49 90 0.0 0.0 0.00 0.00 0.00 48 1009.0
20260510041615 49 90 0.0 0.0 0.00 0.00 0.00 47 1008.9
20260510040049 50 89 0.0 0.0 0.00 0.00 0.00 47 1008.7
20260510034554 51 89 0.0 0.0 0.00 0.00 0.00 47 1008.6
20260510033050 51 89 0.0 0.0 0.00 0.00 0.00 46 1008.4
20260510031551 52 87 0.0 0.0 0.00 0.00 0.00 45 1008.1
20260510030041 53 87 0.0 0.0 0.00 0.00 0.00 44 1008.0
20260510024553 53 87 0.0 0.0 0.00 0.00 0.00 43 1007.7
20260510023037 54 87 0.0 0.0 0.00 0.00 0.00 41 1007.4
20260510021534 55 87 0.0 0.0 0.00 0.00 0.00 40 1007.1
20260510020033 56 87 0.0 0.0 0.00 0.00 0.00 39 1006.8
20260510014531 57 82 0.0 0.0 0.00 0.00 0.00 39 1006.5
20260510013028 58 80 0.0 0.0 0.00 0.00 0.00 38 1006.2
20260510011529 58 80 0.0 0.0 0.00 0.00 0.00 37 1005.8
20260510010023 59 189 0.0 0.0 0.00 0.00 0.00 36 1005.3
20260510004522 60 114 0.0 0.0 0.00 0.00 0.00 36 1005.1
20260510003020 61 170 0.0 0.0 0.00 0.00 0.00 34 1004.9
20260510001519 62 107 0.0 0.0 0.00 0.00 0.00 35 1004.8
20260510000020 62 100 0.0 0.0 0.00 0.00 0.00 35 1004.5
20260509234515 63 135 1.0 0.0 0.00 0.00 0.00 34 1004.2
20260509233013 64 112 0.0 0.0 0.00 0.00 0.00 33 1004.0
20260509231512 65 220 2.0 0.0 0.00 0.00 0.00 33 1004.0
20260509230010 65 104 2.0 0.0 0.00 0.00 0.00 35 1003.6
20260509224508 65 68 1.0 0.0 0.00 0.00 0.00 36 1003.4
20260509223007 65 176 1.0 0.0 0.00 0.00 0.00 37 1003.2
20260509221505 65 138 1.0 0.0 0.00 0.00 0.00 39 1003.0
20260509220007 66 127 1.0 0.0 0.00 0.00 0.00 36 1002.9
20260509214501 68 166 2.0 0.0 0.00 0.00 0.00 36 1002.7
20260509213101 68 219 2.0 0.0 0.00 0.00 0.00 36 1002.4
20260509211602 70 74 1.0 0.0 0.00 0.00 0.00 36 1002.2
20260509210108 70 43 3.0 0.0 0.00 0.00 0.00 33 1002.1
20260509204556 71 110 2.0 0.0 0.00 0.00 0.00 34 1001.9
20260509203055 70 214 2.0 0.0 0.00 0.00 0.00 35 1001.9
20260509201554 70 161 2.0 0.0 0.00 0.00 0.00 35 1001.8
20260509200055 71 65 2.0 0.0 0.00 0.00 0.00 36 1001.6
20260509194550 70 185 2.0 0.0 0.00 0.00 0.00 37 1001.2
20260509193050 70 91 2.0 0.0 0.00 0.00 0.00 36 1001.2
20260509191548 70 93 2.0 0.0 0.00 0.00 0.00 38 1001.1
20260509190050 70 174 3.0 0.0 0.00 0.00 0.00 38 1000.9
20260509184545 70 144 3.0 0.0 0.00 0.00 0.00 37 1000.8
20260509183042 69 107 2.0 0.0 0.00 0.00 0.00 38 1000.4
20260509181540 68 91 2.0 0.0 0.00 0.00 0.00 37 1000.2
20260509180037 68 85 2.0 0.0 0.00 0.00 0.00 39 999.9
20260509174538 67 71 4.0 0.0 0.00 0.00 0.00 40 1000.0
20260509173055 67 86 2.0 0.0 0.00 0.00 0.00 43 1000.0
20260509171536 65 60 4.0 0.0 0.00 0.00 0.00 45 999.9
20260509170031 64 74 4.0 0.0 0.00 0.00 0.00 43 1000.0
20260509164527 64 156 3.0 0.0 0.00 0.00 0.00 43 1000.1
20260509163026 63 47 3.0 0.0 0.00 0.00 0.00 42 1000.1
20260509161524 61 71 2.0 0.0 0.00 0.00 0.00 42 1000.0
20260509160024 61 58 1.0 0.0 0.00 0.00 0.00 41 1000.0
20260509154523 62 51 1.0 0.0 0.00 0.00 0.00 41 1000.0
20260509153031 61 51 0.0 0.0 0.00 0.00 0.00 41 999.9
20260509151522 62 161 1.0 0.0 0.00 0.00 0.00 38 1000.1
20260509150022 62 94 1.0 0.0 0.00 0.00 0.00 40 1000.4
20260509144520 62 110 1.0 0.0 0.00 0.00 0.00 42 1000.4
20260509143020 60 68 1.0 0.0 0.00 0.00 0.00 44 1000.4
20260509141518 59 60 1.0 0.0 0.00 0.00 0.00 47 1000.5
20260509140016 58 91 0.0 0.0 0.00 0.00 0.00 49 1000.2
20260509134513 58 60 0.0 0.0 0.00 0.00 0.00 48 999.4
20260509133013 58 61 0.0 0.0 0.00 0.00 0.00 49 999.2
20260509131512 58 53 0.0 0.0 0.00 0.00 0.00 50 999.0
20260509130037 57 51 0.0 0.0 0.00 0.00 0.00 54 999.2
20260509124526 55 60 0.0 0.0 0.00 0.00 0.00 60 999.2
20260509123011 53 60 0.0 0.0 0.00 0.00 0.00 64 999.1
20260509121510 51 60 0.0 0.0 0.00 0.00 0.00 68 998.8
20260509120014 50 60 0.0 0.0 0.00 0.00 0.00 70 999.0
20260509114508 50 60 0.0 0.0 0.00 0.00 0.00 70 999.1
20260509113008 50 60 0.0 0.0 0.00 0.00 0.00 70 999.0
20260509111507 50 60 0.0 0.0 0.00 0.00 0.00 72 998.8
20260509110005 51 60 0.0 0.0 0.00 0.00 0.00 73 998.8
20260509104502 52 60 0.0 0.0 0.00 0.00 0.00 73 998.8
20260509103108 53 60 0.0 0.0 0.00 0.00 0.00 73 998.8
20260509101602 54 60 0.0 0.0 0.00 0.00 0.00 73 998.4
20260509100055 54 60 0.0 0.0 0.00 0.00 0.00 73 998.3
20260509094559 54 60 0.0 0.0 0.00 0.00 0.00 73 998.2
20260509093051 55 60 0.0 0.0 0.00 0.00 0.00 72 998.2
20260509091553 56 60 0.0 0.0 0.00 0.00 0.00 73 998.3
20260509090048 56 39 0.0 0.0 0.00 0.00 0.00 72 998.3
20260509084547 57 55 0.0 0.0 0.00 0.00 0.00 71 998.3
20260509083043 57 78 2.0 0.0 0.00 0.00 0.00 71 998.2
20260509081543 57 43 1.0 0.0 0.00 0.00 0.00 71 997.9
20260509080045 57 64 1.0 0.0 0.00 0.00 0.00 71 997.8
20260509074540 58 74 1.0 0.0 0.00 0.00 0.00 70 997.8
20260509073044 58 69 1.0 0.0 0.00 0.00 0.00 69 997.7
20260509071535 58 78 2.0 0.0 0.00 0.00 0.00 67 997.9
20260509070032 58 35 0.0 0.0 0.00 0.00 0.00 66 997.9
20260509064531 59 50 1.0 0.0 0.00 0.00 0.00 63 998.0